Location: Boiro
(42.6475°N, 8.8834°W)
Time: 03:50:51
(UTC+01:00)

Vanguard 1 Rocket - Pass Details

Date: 09 December 2021
Orbit: 651 x 4224 km, 34.3° (Epoch: 21 January)

Event Time Altitude Azimuth Distance (km) Brightness Sun altitude
Rises 10:51:23 0° 275° (W) 7,089 11.6 15.2°
Reaches altitude 10° 10:58:37 10° 258° (WSW) 6,648 11.6 16.0°
Maximum altitude 11:10:33 17° 226° (SW) 6,636 12.0 17.2°
Drops below altitude 10° 11:23:58 10° 194° (SSW) 7,404 12.8 18.5°
Sets 11:33:21 0° 178° (S) 8,200 13.4 19.4°
